Regional Weather Roundup
Issued by NWS

Home | Current Version | Previous Version | Graphics & Text | Print | Product List | Glossary On
Versions: 1 2 3 4 5 6 7 8 9 10 11 12 13 14 15 16 17 18 19 20 21 22 23 24 25 26 27 28 29 30 31 32 33 34 35 36 37 38 39 40 41 42 43 44 45 46 47 48 49 50
000
ASUS43 KIND 200809
RWRIN

WEATHER ROUNDUP FOR INDIANA
NATIONAL WEATHER SERVICE INDIANAPOLIS IN
400 AM EDT FRI APR 20 2018

NOTE: "FAIR" INDICATES FEW OR NO CLOUDS BELOW 12,000 FEET WITH NO
SIGNIFICANT WEATHER AND/OR OBSTRUCTIONS TO VISIBILITY.

* - STATION DOES NOT REPORT WEATHER SUCH AS PRECIPITATION OR FOG.

+ - STATION NOT QUALITY CONTROLLED BY THE NATIONAL WEATHER SERVICE.
    USE DATA WITH CAUTION...ESPECIALLY DEWPOINT AND RELATIVE
    HUMIDITY OBSERVATIONS.

INZ001>003-010>013-019-020-200900-
NORTHWEST INDIANA

CITY           SKY/WX    TMP DP  RH WIND       PRES   REMARKS
GARY /AIRPORT/ FAIR      31  31 100 CALM      30.45R FOG
KNOX *+        FAIR      27  23  86 CALM      30.44R
LA PORTE +     FAIR      29  25  86 NW3       30.44R
MICHIGAN CITY+ FAIR      30  28  93 CALM      30.45R
MONTICELLO +   FAIR      33  22  65 N5        30.43R WCI  28
RENSSELAER +   FAIR      30  21  69 CALM      30.45R
VALPARAISO     FAIR      36  26  67 CALM      30.44R

$$

LMZ046-743>745-200900-
SOUTHERN LAKE MICHIGAN

STATION/POSITION TIME  TEMP    WIND        PRES    WAVE
                       AIR SEA DIR/SP/G            HT
                 (UTC) (F)     (DEG/KT/KT) (MB)    (FT)
BURNS HARBOR     0723   41     270/  3/  5 1031.2S
MICHIGAN CITY    0740   39     350/  4/  4   N/A

$$

INZ004-005-014>016-021>024-200900-
NORTH CENTRAL INDIANA

CITY           SKY/WX    TMP DP  RH WIND       PRES   REMARKS
GOSHEN         FAIR      30  23  75 VRB7      30.42R WCI  23
LOGANSPORT +   FAIR      32  23  69 N5        30.44R WCI  27
PERU/GRISSOM   FAIR      34  23  64 N3        30.42R
ROCHESTER +    FAIR      34  27  75 CALM      30.43R
SOUTH BEND     FAIR      26  21  81 CALM      30.43S
WARSAW +       FAIR      32  23  69 NW5       30.42R WCI  27

$$

INZ006>009-017-018-025>027-200900-
NORTHEAST INDIANA

CITY           SKY/WX    TMP DP  RH WIND       PRES   REMARKS
ANGOLA *+      FAIR      32  21  64 NW6       30.39S WCI  26
AUBURN +       FAIR      32  21  64 NW5       30.41R WCI  27
FORT WAYNE     FAIR      33  23  66 N5        30.41R WCI  29
HUNTINGTON +   FAIR      32  19  57 NW3       30.41S
KENDALLVILLE + FAIR      32  17  52 NW5       30.40S WCI  27

$$

INZ028-029-035-036-043>045-051>053-200900-
WEST CENTRAL INDIANA

CITY           SKY/WX    TMP DP  RH WIND       PRES   REMARKS
CRAWFORDSVL +  FAIR      31  18  59 N5        30.44R WCI  26
GREENCASTLE +  FAIR      34  19  55 N5        30.43S WCI  30
LAFAYETTE      FAIR      28  22  78 CALM      30.44R
TERRE HAUTE    FAIR      31  21  66 NE3       30.43F

$$

INZ030>032-037>040-046>048-054>057-064-065-200900-
CENTRAL INDIANA

CITY           SKY/WX    TMP DP  RH WIND       PRES   REMARKS
FISHERS *+     FAIR      28  25  86 CALM      30.43R
FRANKFORT +    FAIR      35  23  61 N6        30.45R WCI  29
GREENWOOD *+   FAIR      32  20  61 N6        30.42R WCI  26
INDIANAPOLIS   FAIR      34  17  50 N6        30.43R WCI  29
-EAGLE CREEK   FAIR      34  17  50 CALM      30.42R
KOKOMO +       FAIR      32  23  69 N7        30.43R WCI  26
MARION +       FAIR      31  23  71 CALM      30.42R
MT COMFORT *+  FAIR      28  25  86 N7        30.42R WCI  21
SHELBYVILLE    FAIR      33  22  63 N9        30.40R WCI  25
ZIONSVILLE +   FAIR      29  21  70 N5        30.43R WCI  24

$$

INZ033-034-041-042-049-050-058-059-200900-
EAST CENTRAL INDIANA

CITY           SKY/WX    TMP DP  RH WIND       PRES   REMARKS
MUNCIE         FAIR      32  22  66 NW5       30.40S WCI  27
RICHMOND +     FAIR      32  27  80 N3        30.38S

$$

INZ060-061-067>069-081>083-085>088-200900-
SOUTHWEST INDIANA

CITY           SKY/WX    TMP DP  RH WIND       PRES   REMARKS
EVANSVILLE     FAIR      42  23  46 N7        30.42S
HUNTINGBURG +  FAIR      39  19  44 N8        30.41R WCI  33
WASHINGTON +   FAIR      34  20  57 N6        30.43R WCI  29

$$

INZ062-063-066-070>080-084-089>092-200900-
SOUTH CENTRAL AND SOUTHEAST INDIANA

CITY           SKY/WX    TMP DP  RH WIND       PRES   REMARKS
BATESVILLE +   CLEAR     34  25  69 MISG      30.39R
BEDFORD +      FAIR      37  14  38 N5        30.41R WCI  34
BLOOMINGTON    FAIR      32  19  58 N8        30.41S WCI  25
FRENCH LICK *+ FAIR      37  10  32 NE6       30.40S WCI  33
MADISON *+     FAIR      34  27  75 CALM      30.41R
NORTH VERNON + FAIR      32  23  69 N3        30.41R
SEYMOUR +      FAIR      37  21  52 N7        30.41R WCI  32

$$




USA.gov is the U.S. government's official web portal to all federal, state and local government web resources and services.